Terminal Aerodrome Forecast
Issued by NWS Portland, OR

Home | Current Version | Previous Version | Text Only | Print | Product List | Glossary On
Versions: 1 2 3 4 5 6 7 8 9 10 11 12 13 14 15 16 17 18 19 20 21 22 23 24 25 26 27 28 29 30 31 32 33 34
000
FTUS46 KPQR 230905 AAA
TAFTTD
TAF AMD
KTTD 230905Z 2309/2406 VRB03KT P6SM -SHRA SCT050 OVC100
     FM231800 19005KT P6SM VCSH SCT045 BKN070
     FM240400 12005KT P6SM -RA BKN040 OVC060=

USA.gov is the U.S. government's official web portal to all federal, state and local government web resources and services.